Time,TemperatureF,DewpointF,PressureIn,WindDirection,WindDirectionDegrees,WindSpeedMPH,WindSpeedGustMPH,Humidity,HourlyPrecipIn,Conditions,Clouds,dailyrainin,SoftwareType,DateUTC
2013-03-09 00:11:00,34.0,30.0,30.21,ESE,113,3.0,12.0,85,0.00,,,0.00,weatherlink.com 1.10,2013-03-09 06:11:00,
2013-03-09 00:26:00,34.0,30.0,30.21,SSE,156,6.0,11.0,85,0.00,,,0.00,weatherlink.com 1.10,2013-03-09 06:26:00,
2013-03-09 00:41:00,33.9,30.0,30.21,SE,134,1.0,7.0,85,0.00,,,0.00,weatherlink.com 1.10,2013-03-09 06:41:00,
2013-03-09 00:56:00,33.8,30.0,30.21,SE,139,4.0,8.0,85,0.00,,,0.00,weatherlink.com 1.10,2013-03-09 06:56:00,
2013-03-09 01:11:00,33.9,30.0,30.20,ENE,57,3.0,14.0,85,0.00,,,0.00,weatherlink.com 1.10,2013-03-09 07:11:00,
2013-03-09 01:26:00,33.9,30.0,30.18,SE,131,6.0,8.0,85,0.00,,,0.00,weatherlink.com 1.10,2013-03-09 07:26:00,
2013-03-09 01:41:00,34.1,30.0,30.17,ENE,72,2.0,12.0,85,0.00,,,0.00,weatherlink.com 1.10,2013-03-09 07:41:00,
2013-03-09 01:56:00,34.3,30.0,30.16,ENE,68,4.0,11.0,85,0.00,,,0.00,weatherlink.com 1.10,2013-03-09 07:56:00,
2013-03-09 02:11:00,34.4,30.0,30.14,ESE,102,4.0,10.0,85,0.00,,,0.00,weatherlink.com 1.10,2013-03-09 08:11:00,
2013-03-09 02:26:00,34.5,31.0,30.14,NW,324,2.0,13.0,85,0.00,,,0.00,weatherlink.com 1.10,2013-03-09 08:26:00,
2013-03-09 02:41:00,34.8,30.0,30.14,SSE,167,4.0,12.0,84,0.00,,,0.00,weatherlink.com 1.10,2013-03-09 08:41:00,
2013-03-09 02:56:00,35.0,31.0,30.14,SE,135,4.0,12.0,84,0.00,,,0.00,weatherlink.com 1.10,2013-03-09 08:56:00,
2013-03-09 03:11:00,34.9,31.0,30.12,East,96,3.0,6.0,84,0.00,,,0.00,weatherlink.com 1.10,2013-03-09 09:11:00,
2013-03-09 03:26:00,35.0,31.0,30.13,SSE,162,3.0,9.0,84,0.00,,,0.00,weatherlink.com 1.10,2013-03-09 09:26:00,
2013-03-09 03:41:00,34.9,31.0,30.12,NNE,27,0.0,5.0,84,0.00,,,0.00,weatherlink.com 1.10,2013-03-09 09:41:00,
2013-03-09 03:56:00,34.7,30.0,30.12,SSW,200,3.0,10.0,84,0.00,,,0.00,weatherlink.com 1.10,2013-03-09 09:56:00,
2013-03-09 04:11:00,34.8,31.0,30.11,ESE,113,3.0,6.0,85,0.00,,,0.00,weatherlink.com 1.10,2013-03-09 10:11:00,
2013-03-09 04:26:00,35.2,31.0,30.10,ESE,122,8.0,9.0,85,0.00,,,0.00,weatherlink.com 1.10,2013-03-09 10:26:00,
2013-03-09 04:41:00,35.2,31.0,30.10,ESE,103,5.0,13.0,84,0.00,,,0.00,weatherlink.com 1.10,2013-03-09 10:41:00,
2013-03-09 04:56:00,35.3,31.0,30.10,SE,138,4.0,8.0,85,0.00,,,0.00,weatherlink.com 1.10,2013-03-09 10:56:00,
2013-03-09 05:11:00,35.9,32.0,30.10,East,86,2.0,13.0,85,0.00,,,0.00,weatherlink.com 1.10,2013-03-09 11:11:00,
2013-03-09 05:26:00,36.7,33.0,30.11,South,181,8.0,15.0,86,0.00,,,0.00,weatherlink.com 1.10,2013-03-09 11:26:00,
2013-03-09 05:41:00,36.4,34.0,30.11,East,97,9.0,14.0,89,0.00,,,0.00,weatherlink.com 1.10,2013-03-09 11:41:00,
2013-03-09 05:56:00,35.9,34.0,30.10,ESE,120,14.0,14.0,92,0.00,,,0.00,weatherlink.com 1.10,2013-03-09 11:56:00,
2013-03-09 06:12:00,35.7,34.0,30.10,SSW,200,8.0,15.0,93,0.00,,,0.00,weatherlink.com 1.10,2013-03-09 12:12:00,
2013-03-09 06:27:00,35.6,34.0,30.10,SSE,163,3.0,13.0,93,0.02,,,0.02,weatherlink.com 1.10,2013-03-09 12:27:00,
2013-03-09 06:42:00,35.4,34.0,30.10,SSE,158,1.0,11.0,95,0.02,,,0.02,weatherlink.com 1.10,2013-03-09 12:42:00,
2013-03-09 06:57:00,35.4,34.0,30.11,SSE,158,5.0,11.0,95,0.02,,,0.02,weatherlink.com 1.10,2013-03-09 12:57:00,
2013-03-09 07:12:00,35.5,34.0,30.09,East,96,2.0,7.0,95,0.03,,,0.03,weatherlink.com 1.10,2013-03-09 13:12:00,
2013-03-09 07:27:00,35.6,34.0,30.08,ESE,108,8.0,11.0,95,0.02,,,0.04,weatherlink.com 1.10,2013-03-09 13:27:00,
2013-03-09 07:42:00,35.7,34.0,30.08,SE,127,5.0,12.0,95,0.03,,,0.05,weatherlink.com 1.10,2013-03-09 13:42:00,
2013-03-09 07:57:00,36.1,35.0,30.07,SSE,149,5.0,15.0,95,0.03,,,0.05,weatherlink.com 1.10,2013-03-09 13:57:00,
2013-03-09 08:12:00,36.5,35.0,30.06,SE,135,3.0,14.0,95,0.02,,,0.05,weatherlink.com 1.10,2013-03-09 14:12:00,
2013-03-09 08:27:00,37.1,35.0,30.05,SSE,154,10.0,18.0,92,0.01,,,0.05,weatherlink.com 1.10,2013-03-09 14:27:00,
2013-03-09 08:42:00,37.4,35.0,30.04,SSE,156,8.0,16.0,91,0.00,,,0.05,weatherlink.com 1.10,2013-03-09 14:42:00,
2013-03-09 08:57:00,38.2,35.0,30.04,South,189,3.0,16.0,89,0.00,,,0.05,weatherlink.com 1.10,2013-03-09 14:57:00,
2013-03-09 09:12:00,38.5,35.0,30.03,SE,145,10.0,16.0,88,0.00,,,0.05,weatherlink.com 1.10,2013-03-09 15:12:00,
2013-03-09 09:27:00,38.7,35.0,30.02,SE,136,3.0,21.0,87,0.00,,,0.05,weatherlink.com 1.10,2013-03-09 15:27:00,
2013-03-09 09:42:00,38.6,35.0,30.01,South,169,10.0,20.0,87,0.00,,,0.05,weatherlink.com 1.10,2013-03-09 15:42:00,
2013-03-09 09:57:00,38.5,35.0,30.00,SE,141,2.0,15.0,87,0.00,,,0.05,weatherlink.com 1.10,2013-03-09 15:57:00,
2013-03-09 10:12:00,38.3,35.0,29.99,SSE,149,2.0,15.0,88,0.00,,,0.05,weatherlink.com 1.10,2013-03-09 16:12:00,
2013-03-09 10:27:00,38.4,35.0,29.98,SSE,160,6.0,10.0,88,0.00,,,0.05,weatherlink.com 1.10,2013-03-09 16:27:00,
2013-03-09 10:42:00,38.4,35.0,29.98,SE,134,6.0,16.0,88,0.00,,,0.05,weatherlink.com 1.10,2013-03-09 16:42:00,
2013-03-09 10:57:00,38.4,35.0,29.98,SE,139,5.0,18.0,88,0.00,,,0.05,weatherlink.com 1.10,2013-03-09 16:57:00,
2013-03-09 11:12:00,38.5,35.0,29.97,SE,142,9.0,15.0,88,0.00,,,0.05,weatherlink.com 1.10,2013-03-09 17:12:00,
2013-03-09 11:27:00,38.5,36.0,29.97,SSE,163,4.0,17.0,89,0.00,,,0.05,weatherlink.com 1.10,2013-03-09 17:27:00,
2013-03-09 11:42:00,38.5,36.0,29.96,SSE,158,3.0,12.0,89,0.00,,,0.05,weatherlink.com 1.10,2013-03-09 17:42:00,
2013-03-09 11:57:00,38.6,36.0,29.95,SW,220,3.0,8.0,89,0.00,,,0.05,weatherlink.com 1.10,2013-03-09 17:57:00,
2013-03-09 12:12:00,38.7,36.0,29.94,SE,124,7.0,8.0,89,0.00,,,0.05,weatherlink.com 1.10,2013-03-09 18:12:00,
2013-03-09 12:27:00,38.6,36.0,29.93,ESE,117,5.0,17.0,90,0.00,,,0.05,weatherlink.com 1.10,2013-03-09 18:27:00,
2013-03-09 12:42:00,38.6,36.0,29.92,SSE,165,7.0,9.0,91,0.00,,,0.05,weatherlink.com 1.10,2013-03-09 18:42:00,
2013-03-09 12:57:00,38.4,37.0,29.91,NE,51,2.0,15.0,93,0.00,,,0.05,weatherlink.com 1.10,2013-03-09 18:57:00,
2013-03-09 13:12:00,38.3,37.0,29.89,SSE,153,3.0,13.0,94,0.00,,,0.05,weatherlink.com 1.10,2013-03-09 19:12:00,
2013-03-09 13:27:00,38.3,37.0,29.89,South,176,4.0,10.0,95,0.02,,,0.07,weatherlink.com 1.10,2013-03-09 19:27:00,
2013-03-09 13:42:00,38.3,37.0,29.88,SE,139,3.0,8.0,96,0.02,,,0.07,weatherlink.com 1.10,2013-03-09 19:42:00,
2013-03-09 13:57:00,38.3,38.0,29.87,WSW,250,5.0,11.0,97,0.03,,,0.08,weatherlink.com 1.10,2013-03-09 19:57:00,
2013-03-09 14:12:00,38.4,38.0,29.86,SE,135,4.0,13.0,97,0.05,,,0.10,weatherlink.com 1.10,2013-03-09 20:12:00,
2013-03-09 14:27:00,38.4,38.0,29.85,SSE,160,3.0,9.0,98,0.05,,,0.12,weatherlink.com 1.10,2013-03-09 20:27:00,
2013-03-09 14:43:00,38.3,38.0,29.84,West,260,3.0,9.0,98,0.06,,,0.13,weatherlink.com 1.10,2013-03-09 20:43:00,
2013-03-09 14:58:00,38.5,38.0,29.84,SE,139,1.0,10.0,98,0.05,,,0.13,weatherlink.com 1.10,2013-03-09 20:58:00,
2013-03-09 15:13:00,38.6,38.0,29.84,SE,124,5.0,11.0,99,0.04,,,0.14,weatherlink.com 1.10,2013-03-09 21:13:00,
2013-03-09 15:28:00,39.1,39.0,29.83,SE,131,3.0,14.0,99,0.05,,,0.17,weatherlink.com 1.10,2013-03-09 21:28:00,
2013-03-09 15:43:00,39.2,39.0,29.82,South,172,4.0,11.0,99,0.06,,,0.19,weatherlink.com 1.10,2013-03-09 21:43:00,
2013-03-09 15:58:00,39.4,39.0,29.81,SSE,156,5.0,10.0,99,0.07,,,0.20,weatherlink.com 1.10,2013-03-09 21:58:00,
2013-03-09 16:13:00,39.7,40.0,29.81,WNW,285,1.0,6.0,99,0.06,,,0.20,weatherlink.com 1.10,2013-03-09 22:13:00,
2013-03-09 16:28:00,39.8,39.0,29.81,SE,145,2.0,11.0,98,0.04,,,0.21,weatherlink.com 1.10,2013-03-09 22:28:00,
2013-03-09 16:43:00,39.7,39.0,29.81,SSE,162,3.0,6.0,98,0.02,,,0.21,weatherlink.com 1.10,2013-03-09 22:43:00,
2013-03-09 16:58:00,39.7,39.0,29.82,SW,233,0.0,5.0,98,0.01,,,0.21,weatherlink.com 1.10,2013-03-09 22:58:00,
2013-03-09 17:13:00,39.5,39.0,29.80,SE,143,4.0,6.0,98,0.01,,,0.21,weatherlink.com 1.10,2013-03-09 23:13:00,
2013-03-09 17:28:00,39.6,39.0,29.81,West,273,3.0,5.0,98,0.00,,,0.21,weatherlink.com 1.10,2013-03-09 23:28:00,
2013-03-09 17:43:00,39.5,39.0,29.81,ESE,120,0.0,4.0,97,0.01,,,0.22,weatherlink.com 1.10,2013-03-09 23:43:00,
2013-03-09 17:58:00,39.2,39.0,29.83,SSE,150,1.0,4.0,98,0.06,,,0.27,weatherlink.com 1.10,2013-03-09 23:58:00,
2013-03-09 18:13:00,39.0,39.0,29.83,ESE,116,0.0,6.0,98,0.11,,,0.32,weatherlink.com 1.10,2013-03-10 00:13:00,
2013-03-09 18:28:00,38.7,38.0,29.82,ESE,117,1.0,7.0,98,0.15,,,0.36,weatherlink.com 1.10,2013-03-10 00:28:00,
2013-03-09 18:43:00,38.6,38.0,29.80,SW,229,1.0,8.0,98,0.16,,,0.38,weatherlink.com 1.10,2013-03-10 00:43:00,
2013-03-09 18:58:00,38.3,38.0,29.80,ENE,68,1.0,7.0,98,0.12,,,0.39,weatherlink.com 1.10,2013-03-10 00:58:00,
2013-03-09 19:28:00,39.0,39.0,29.80,ENE,73,1.0,7.0,99,0.08,,,0.44,weatherlink.com 1.10,2013-03-10 01:28:00,
2013-03-09 19:43:00,39.6,39.0,29.79,SE,139,0.0,8.0,99,0.09,,,0.47,weatherlink.com 1.10,2013-03-10 01:43:00,
2013-03-09 19:58:00,39.8,39.0,29.79,SSE,158,2.0,6.0,98,0.10,,,0.49,weatherlink.com 1.10,2013-03-10 01:58:00,
2013-03-09 20:13:00,39.8,39.0,29.79,SW,224,2.0,2.0,98,0.10,,,0.52,weatherlink.com 1.10,2013-03-10 02:13:00,
2013-03-09 20:28:00,40.0,40.0,29.79,SSW,195,0.0,5.0,99,0.09,,,0.53,weatherlink.com 1.10,2013-03-10 02:28:00,
2013-03-09 20:43:00,40.1,40.0,29.80,SSW,211,6.0,6.0,99,0.07,,,0.54,weatherlink.com 1.10,2013-03-10 02:43:00,
2013-03-09 20:58:00,40.4,40.0,29.79,SSW,200,1.0,6.0,99,0.07,,,0.56,weatherlink.com 1.10,2013-03-10 02:58:00,
2013-03-09 21:13:00,40.5,40.0,29.79,WSW,242,0.0,4.0,99,0.07,,,0.59,weatherlink.com 1.10,2013-03-10 03:13:00,
2013-03-09 21:28:00,40.7,41.0,29.80,SSW,193,1.0,4.0,99,0.07,,,0.60,weatherlink.com 1.10,2013-03-10 03:28:00,
2013-03-09 21:43:00,41.0,41.0,29.79,SE,127,0.0,3.0,98,0.06,,,0.60,weatherlink.com 1.10,2013-03-10 03:43:00,
2013-03-09 21:58:00,41.1,41.0,29.79,SSW,195,1.0,5.0,98,0.05,,,0.61,weatherlink.com 1.10,2013-03-10 03:58:00,
2013-03-09 22:13:00,41.0,41.0,29.77,NE,42,0.0,4.0,98,0.05,,,0.64,weatherlink.com 1.10,2013-03-10 04:13:00,
2013-03-09 22:28:00,40.9,40.0,29.76,NE,41,3.0,5.0,98,0.05,,,0.65,weatherlink.com 1.10,2013-03-10 04:28:00,
2013-03-09 22:43:00,41.0,41.0,29.76,ESE,122,4.0,6.0,98,0.06,,,0.66,weatherlink.com 1.10,2013-03-10 04:43:00,
2013-03-09 22:58:00,41.2,40.0,29.75,ESE,118,0.0,6.0,97,0.06,,,0.67,weatherlink.com 1.10,2013-03-10 04:58:00,
2013-03-09 23:13:00,40.9,40.0,29.75,ESE,120,0.0,4.0,97,0.03,,,0.67,weatherlink.com 1.10,2013-03-10 05:13:00,
2013-03-09 23:28:00,41.0,40.0,29.75,SSW,194,1.0,5.0,97,0.02,,,0.67,weatherlink.com 1.10,2013-03-10 05:28:00,
2013-03-09 23:43:00,41.0,40.0,29.74,ENE,61,2.0,3.0,97,0.03,,,0.69,weatherlink.com 1.10,2013-03-10 05:43:00,
2013-03-09 23:58:00,40.7,40.0,29.74,ESE,105,4.0,6.0,98,0.04,,,0.71,weatherlink.com 1.10,2013-03-10 05:58:00,